User: anonymous   Login
Location: Irma
(52.9170°N, 111.2330°W)
Time: 23:10:40
(UTC-06:00)
Language:

Cosmos 1633 Rocket - Orbit

View from above orbital plane
View from above orbital plane
View from above satellite
View from above satellite

Ground track
Ground track

The orbit data is extracted from the following two-line orbital elements,

1 15593U 85020B   14295.82367900  .00000864  00000-0  10144-3 0  7982
2 15593 082.5372 088.6049 0011460 004.9511 109.3114 14.83784532600740
Epoch (UTC): 22 October 2014 19:46:05
Eccentricity: 0.0011460
inclination: 82.5372°
perigee height: 609 km
apogee height: 625 km
right ascension of ascending node: 88.6049°
argument of perigee: 4.9511°
revolutions per day: 14.83784532
mean anomaly at epoch: 109.3114°
orbit number at epoch: 60074

The dashed part of the orbit path shows where the satellite is in the earth's shadow,  

DLR